Home > Weather > Kingstown > Past weeks

Flag for Saint Vincent and Grenadines Weather for the Past 2 Weeks in Kingstown, Saint Vincent and Grenadines

Now
82 °F

Passing clouds.


Feels Like: 88 °F
Forecast: 80 / 86 °F
Wind: 14 mph from East

Location: Arnos Vale

Current Time: May 4, 2016 at 10:05:52 PM

Latest Report: May 4, 2016 at 9:00 PM


Visibility: N/A

Pressure: 29.95 "Hg

Humidity: 74%

Dew Point: 73 °F

Location of KingstownLocation

Historic Weather in Kingstown — Graph

°F

Kingstown Temperature Yesterday

Maximum temperature yesterday: 88 °F (at 1:00 PM)
Minimum temperature yesterday: 81 °F (at 12:00 AM)
Average temperature yesterday: 84 °F

High & Low Weather Summary for the Past Weeks

 TemperatureHumidityPressure
High90 °F (Apr 26, 1:00 PM)89% (May 2, 6:00 AM)30.04 "Hg (May 2, 6:00 AM)
Low75 °F (May 2, 6:00 AM)62% (Apr 24, 1:00 PM)29.80 "Hg (Apr 25, 4:00 PM)
Average84 °F74%29.92 "Hg
* Reported Apr 19 9:00 PM — May 4 9:00 PM, Kingstown, Weather by CustomWeather, © 2016

Note: Actual official high and low records may vary slightly from our data, if they occured in-between our weather recording intervals... More about our weather records

Advertising

Kingstown Weather History for the Previous 24 Hours

Scroll right to see more
 ConditionsComfort  
Time TempWeatherWind HumidityBarometerVisibility
9:00 PM
Wed, May 4
82 °FPassing clouds.14 mph74%29.95 "HgN/A
8:00 PM82 °FPassing clouds.15 mph70%29.92 "HgN/A
7:00 PM82 °FPassing clouds.13 mph79%29.92 "HgN/A
6:00 PM82 °FScattered clouds.15 mph79%29.89 "HgN/A
5:00 PM84 °FPartly sunny.16 mph74%29.89 "HgN/A
4:00 PM84 °FPartly sunny.16 mph70%29.89 "HgN/A
3:00 PM86 °FPartly sunny.15 mph66%29.92 "HgN/A
2:00 PM86 °FBroken clouds.14 mph70%29.92 "HgN/A
1:00 PM86 °FBroken clouds.15 mph70%29.95 "HgN/A
12:00 PM86 °FBroken clouds.16 mph70%29.98 "HgN/A
11:00 AM86 °FScattered clouds.17 mph70%29.98 "HgN/A
10:00 AM86 °FPartly sunny.15 mph70%29.98 "HgN/A
9:00 AM84 °FPartly sunny.16 mph74%29.98 "HgN/A
8:00 AM82 °FBroken clouds.15 mph79%29.98 "HgN/A
7:00 AM81 °FBroken clouds.15 mph84%29.95 "HgN/A
6:00 AM81 °FSprinkles. Partly sunny.14 mph84%29.95 "HgN/A
10:00 PM
Tue, May 3
82 °FPartly cloudy.17 mph79%29.95 "HgN/A
Weather by CustomWeather, © 2016

See weather overviewHow to use our weather pages